Location: Kaarina
(60.4167°N, 22.4167°E)
Time: 15:02:19
(UTC+03:00)

Cosmos 2082 Rocket - Pass Details

Date: 24 August 2019
Orbit: 832 x 855 km, 71.0° (Epoch: 15 September)

Event Time Altitude Azimuth Distance (km) Brightness Sun altitude
Rises 22:45:22 0° 191° (S) 3,383 5.0 -11.3°
Reaches altitude 10° 22:47:53 10° 185° (S) 2,456 4.2 -11.5°
Maximum altitude 22:53:11 43° 115° (ESE) 1,169 2.5 -11.9°
Drops below altitude 10° 22:58:32 10° 46° (NE) 2,485 4.7 -12.3°
Sets 23:01:06 0° 40° (NE) 3,428 5.5 -12.5°
